Regional Weather Roundup
Issued by NWS

Home | Current Version | Previous Version | Graphics & Text | Print | Product List | Glossary On
Versions: 1 2 3 4 5 6 7 8 9 10 11 12 13 14 15 16 17 18 19 20 21 22 23 24 25 26 27 28 29 30 31 32 33 34 35 36 37 38 39 40 41 42 43 44 45 46 47 48 49 50
000
ASUS45 KTFX 211804
RWRMT
MONTANA HOURLY WEATHER ROUNDUP
NATIONAL WEATHER SERVICE GREAT FALLS MT
1204 PM MDT SUN SEP 21 2014

NOTE: "FAIR" INDICATES FEW OR NO CLOUDS BELOW 12000 FEET WITH NO
SIGNIFICANT WEATHER AND/OR OBSTRUCTIONS TO VISIBILITY.

* THESE STATIONS ARE NOT UNDER NWS QUALITY CONTROL. THEY DO NOT
   REPORT WEATHER SUCH AS PRECIPITATION OR FOG.

MTZ001>007-043-211900-
WEST OF THE DIVIDE
CITY           SKY/WX    TMP DP  RH WIND       PRES   REMARKS
KALISPELL      SUNNY     70  45  41 N12       30.11F
MISSOULA       SUNNY     66  41  40 VRB3      30.14F
BUTTE          PTCLDY    66  39  37 CALM      30.25F
MULLAN PASS    SUNNY     63  39  41 VRB7      30.22R
* ESSEX        N/A       65  42  43 S6         N/A
* LINCOLN      N/A       64  42  45 W2         N/A
* LOOKOUT PASS N/A       65  41  42 S8G15      N/A
* POLSON       N/A       67  51  57 S3         N/A
* RONAN APT    SUNNY     70  46  42 N/A        N/A
* SEELEY LAKE  N/A       67  41  39 W3         N/A
* THOMP F APT  SUNNY     69  39  34 S5G10      N/A
$$

MTZ008-052>055-211900-
SOUTHWEST MONTANA
CITY           SKY/WX    TMP DP  RH WIND       PRES   REMARKS
BOZEMAN        SUNNY     64  45  50 NW6       30.25F
DILLON         PTCLDY    64  39  40 NW5       30.26S
W YELLOWSTONE  PTCLDY    61  41  48 N5        30.33F
* THREE FORKS  SUNNY     64  25  23 N/A        N/A
* BOULDER HILL N/A       61  39  44 S9G15      N/A
* MONIDA PASS  N/A       60  40  48 N6         N/A
* RAYNOLDS PAS N/A       67  61  81 N2         N/A
* WHITEHALL    N/A       64  43  47 S3         N/A
* WISE RIVER   N/A       59  36  42 NE3        N/A
$$

MTZ009>010-012-014-046-048-049-054-211900-
EAST SLOPES AND CENTRAL MONTANA
CITY           SKY/WX    TMP DP  RH WIND       PRES   REMARKS
CUT BANK       SUNNY     66  43  43 S13       30.20F
GREAT FALLS    SUNNY     66  46  49 SE5       30.21F
HELENA         SUNNY     64  43  47 CALM      30.21F
MALMSTROM AFB  SUNNY     66  45  47 VRB1      30.22F
* CONRAD       SUNNY     64  48  56 N/A        N/A
* EAST GLACIER N/A       63  44  50 S8         N/A
* MONARCH      N/A       65  40  40 E5G10      N/A
* PENDROY      N/A       68  47  47 SE11G19    N/A
* ROGERS PASS  N/A       67  41  39 S4G9       N/A
* SAINT MARY   N/A       64  45  50 W4         N/A
* SWEET GRASS  N/A       67  43  42 S18G26     N/A
$$

MTZ011-013-016-021-035-040-045-047-050-051-211900-
NORTH CENTRAL MONTANA
CITY           SKY/WX    TMP DP  RH WIND       PRES   REMARKS
HAVRE          SUNNY     70  46  42 E8        30.20F
LEWISTOWN      SUNNY     72  45  38 E5        30.25F
* CHESTER      N/A       65  40  40 SE11G19    N/A
* DENTON       N/A       70  43  38 SE10G15    N/A
* GEYSER       N/A       66  45  47 N8         N/A
* JUDITH GAP   N/A       64  44  48 SE16       N/A
* LOMA         N/A       67  46  47 SE9G14     N/A
$$

MTZ017>020-022>027-061-062-211900-
NORTHEAST MONTANA
CITY           SKY/WX    TMP DP  RH WIND       PRES   REMARKS
GLASGOW        SUNNY     66  45  47 SW5       30.27F
JORDAN         SUNNY     70  37  30 SE10      30.27F
SIDNEY         SUNNY     68  41  38 SE7       30.31S
WOLF POINT     SUNNY     70  43  38 VRB5      30.27F
* BEAVER HILL  N/A       68  35  30 S2         N/A
* CIRCLE       N/A       70  43  38 S5         N/A
* LINDSAY DVD  N/A       69  35  29 SE7        N/A
$$

MTZ028>042-056>058-211900-
SOUTHCENTRAL AND SOUTHEAST MONTANA
CITY           SKY/WX    TMP DP  RH WIND       PRES   REMARKS
BAKER          SUNNY     70  36  29 SW6       30.32F
BILLINGS       SUNNY     64  45  50 CALM      30.26F
LIVINGSTON     SUNNY     64  43  47 E10       30.26F
MILES CITY     SUNNY     72  39  30 SE5       30.29F
* LAUREL APT   SUNNY     63  43  48 N/A        N/A
* ROUNDUP APT  SUNNY     66  43  43 N/A        N/A
* ALZADA       N/A       70  37  30 S2         N/A
* HYSHAM       N/A       71  41  34 SE8        N/A
* LAME DEER    N/A       65  42  43 SE9        N/A
* REED POINT   N/A       64  41  43 E6         N/A
* ROSCOE HILL  N/A       62  38  41 NE4G9      N/A
$$

REGIONAL REPORTS...DAKOTAS
CITY           SKY/WX    TMP DP  RH WIND       PRES   REMARKS
WILLISTON      SUNNY     68  41  38 S8        30.28F
DICKINSON      SUNNY     66  37  34 NW3       30.30F
BEACH          N/A       66  32  28 CALM      30.31F
CROSBY         SUNNY     68  39  35 SW7       30.27S
TIOGA          SUNNY     66  36  33 W8        30.31F
WATFORD CITY   SUNNY     68  36  31 W6        30.28S
BISMARCK       SUNNY     70  45  41 NW7       30.29F
GRAND FORKS    PTSUNNY   63  52  68 N8        30.22F
FARGO          PTCLDY    63  52  68 N8        30.23S
BUFFALO SD     SUNNY     70  37  30 S3        30.27S
RAPID CITY     SUNNY     70  37  30 SE6       30.35F
$$

REGIONAL REPORTS...WYOMING/IDAHO/WASHINGTON
CITY           SKY/WX    TMP DP  RH WIND       PRES   REMARKS
GILLETTE       SUNNY     70  39  32 SE14      30.33F
SHERIDAN       SUNNY     70  46  42 NW6       30.28F
CODY           SUNNY    N/A N/A N/A N/A        N/A
YELLOWSTONE LA SUNNY     59  41  51 E5        30.42F
SALMON         PTCLDY    64  41  43 CALM      30.16F
MULLAN PASS    SUNNY     63  39  41 VRB7      30.22S
SAND POINT     SUNNY     72  46  40 NE8G17    30.04F
SPOKANE        SUNNY     72  45  38 NE8       30.02F

$$




USA.gov is the U.S. government's official web portal to all federal, state and local government web resources and services.